Alexandria, LA

5:29 AM CST on February 24, 2017 (GMT -0600)
Alexandria International

Weather History for KAEX - January, 2002

Change the Weather History Date:

Monday, January 28, 2002

  Actual Average Record
Temperature  
Mean Temperature 62 °F 49 °F  
Max Temperature 70 °F 60 °F 82 °F (1957)
Min Temperature 55 °F 38 °F 17 °F (1897)
Degree Days  
Heating Degree Days 2 16  
Month to date heating degree days 448  
Since 1 July heating degree days 1237  
Growing Degree Days 12 (Base 50)    
Moisture  
Dew Point 64 °F    
Average Humidity 96    
Maximum Humidity 100    
Minimum Humidity 83    
Precipitation  
Precipitation 0.00 in 0.20 in 3.47 in (1994)
Month to date precipitation 4.59  
Year to date precipitation 4.59  
Snow  
Snow 0.00 in - 1.50 in (2014)
Month to date snowfall  
Since 1 July snowfall  
Snow Depth -    
Sea Level Pressure  
Sea Level Pressure 30.08 in    
Wind  
Wind Speed 5 mph (SSE)    
Max Wind Speed 12 mph    
Max Gust Speed -    
Visibility 5 miles    
Events Fog , Thunderstorm    
T = Trace of Precipitation, MM = Missing Value Source: NWS Daily Summary

Daily Weather History Graph

Daily Weather History Graph

Search for Another Location

Airport or City:

Trip Planner

Search our weather history database for the weather conditions in past years. The results will help you decide how hot, cold, wet, or windy it might be!

Date:

Astronomy

Jan. 28, 2002 Rise Set
Actual Time 7:05 AM CST 5:41 PM CST
Civil Twilight 6:39 AM CST 6:07 PM CST
Nautical Twilight 6:10 AM CST 6:36 PM CST
Astronomical Twilight 5:41 AM CST 7:05 PM CST
Moon 5:35 PM CST (1/28) 7:01 AM CST (1/28)
Length of Visible Light 11h 27m
Length of Day
10h 36m
Full, 100% of the Moon is Illuminated
Jan 28
Full
Jan 28
Full
Feb 4
Last Quarter
Feb 12
New
Feb 20
First Quarter

Hourly Weather History & Observations

Time (CST) Temp. Dew Point Humidity Pressure Visibility Wind Dir Wind Speed Gust Speed Precip Events Conditions
12:25 AM 55.4 °F 55.4 °F 100% 30.08 in 3.0 mi SSE 5.8 mph - N/A   Mostly Cloudy
12:53 AM 59.0 °F 57.9 °F 96% 30.09 in 5.0 mi SSE 4.6 mph - N/A   Overcast
1:53 AM 60.1 °F 60.1 °F 100% 30.08 in 5.0 mi SSE 5.8 mph - N/A   Overcast
2:53 AM 62.1 °F 62.1 °F 100% 30.06 in 3.0 mi SSE 10.4 mph - N/A   Overcast
3:03 AM 62.6 °F 62.6 °F 100% 30.04 in 2.0 mi SSE 10.4 mph - N/A   Overcast
3:25 AM 62.6 °F 62.6 °F 100% 30.05 in 1.5 mi South 6.9 mph - N/A   Overcast
3:53 AM 62.1 °F 62.1 °F 100% 30.07 in 1.5 mi SSE 4.6 mph - N/A   Overcast
4:46 AM 62.6 °F 62.6 °F 100% 30.06 in 2.0 mi South 4.6 mph - N/A   Overcast
4:53 AM 63.0 °F 63.0 °F 100% 30.07 in 3.0 mi South 5.8 mph - N/A   Overcast
5:53 AM 63.0 °F 63.0 °F 100% 30.08 in 5.0 mi South 5.8 mph - N/A   Overcast
6:53 AM 63.0 °F 63.0 °F 100% 30.09 in 4.0 mi SSW 4.6 mph - N/A   Overcast
7:00 AM 62.6 °F 62.6 °F 100% 30.08 in 2.5 mi South 4.6 mph - N/A   Overcast
7:22 AM 62.6 °F 62.6 °F 100% 30.08 in 0.8 mi South 3.5 mph - N/A   Overcast
7:37 AM 62.6 °F 62.6 °F 100% 30.08 in 1.2 mi SSE 3.5 mph - N/A   Overcast
7:45 AM 64.4 °F 64.4 °F 100% 30.09 in 3.0 mi South 4.6 mph - N/A   Overcast
7:53 AM 63.0 °F 63.0 °F 100% 30.11 in 1.0 mi SW 5.8 mph - N/A   Overcast
8:27 AM 64.4 °F 64.4 °F 100% 30.10 in 0.2 mi SSW 3.5 mph - N/A Fog Fog
8:53 AM 64.0 °F 64.0 °F 100% 30.13 in 0.2 mi Calm Calm - N/A Fog Fog
9:00 AM 64.4 °F 64.4 °F 100% 30.12 in 0.5 mi Calm Calm - N/A Fog Fog
9:41 AM 64.4 °F 64.4 °F 100% 30.13 in 2.0 mi South 3.5 mph - N/A   Overcast
9:53 AM 64.9 °F 64.9 °F 100% 30.14 in 2.0 mi SSW 3.5 mph - N/A   Overcast
9:57 AM 64.4 °F 64.4 °F 100% 30.13 in 4.0 mi SSW 3.5 mph - N/A Thunderstorm Overcast
10:02 AM 64.4 °F 64.4 °F 100% 30.13 in 4.0 mi South 3.5 mph - N/A   Overcast
10:10 AM 66.2 °F 64.4 °F 94% 30.13 in 4.0 mi SSW 3.5 mph - N/A   Overcast
10:53 AM 66.9 °F 64.9 °F 93% 30.14 in 4.0 mi SSW 5.8 mph - N/A   Overcast
11:00 AM 66.2 °F 64.4 °F 94% 30.13 in 7.0 mi South 3.5 mph - N/A   Overcast
11:26 AM 66.2 °F 64.4 °F 94% 30.13 in 7.0 mi SSW 3.5 mph - N/A   Overcast
11:45 AM 66.2 °F 64.4 °F 94% 30.11 in 7.0 mi Calm Calm - N/A   Overcast
11:53 AM 66.9 °F 64.9 °F 93% 30.12 in 7.0 mi Calm Calm - N/A   Overcast
12:53 PM 69.1 °F 64.9 °F 87% 30.09 in 10.0 mi ESE 3.5 mph - N/A   Mostly Cloudy
1:00 PM 69.8 °F 66.2 °F 88% 30.07 in 10.0 mi ESE 6.9 mph - N/A   Overcast
1:53 PM 70.0 °F 64.9 °F 84% 30.05 in 10.0 mi SE 10.4 mph - N/A   Overcast
2:53 PM 70.0 °F 64.9 °F 84% 30.05 in 10.0 mi SE 11.5 mph - N/A   Overcast
3:06 PM 69.8 °F 64.4 °F 83% 30.03 in 10.0 mi SE 10.4 mph - N/A   Overcast
3:23 PM 69.8 °F 66.2 °F 88% 30.03 in 10.0 mi SE 8.1 mph - N/A   Overcast
3:53 PM 69.1 °F 66.0 °F 90% 30.05 in 10.0 mi SE 10.4 mph - N/A   Overcast
4:53 PM 70.0 °F 66.0 °F 87% 30.04 in 10.0 mi SE 9.2 mph - N/A   Scattered Clouds
5:53 PM 68.0 °F 66.0 °F 93% 30.05 in 10.0 mi SSE 4.6 mph - N/A   Mostly Cloudy
6:53 PM 68.0 °F 66.0 °F 93% 30.05 in 10.0 mi SE 5.8 mph - N/A   Overcast
7:53 PM 64.9 °F 64.0 °F 97% 30.04 in 10.0 mi ESE 4.6 mph - N/A   Partly Cloudy
8:53 PM 64.0 °F 64.0 °F 100% 30.05 in 9.0 mi SSE 4.6 mph - N/A   Mostly Cloudy
9:53 PM 64.9 °F 64.9 °F 100% 30.05 in 10.0 mi SSE 5.8 mph - N/A   Overcast
10:53 PM 64.9 °F 64.9 °F 100% 30.04 in 10.0 mi SSE 4.6 mph - N/A   Overcast
11:53 PM 64.9 °F 64.9 °F 100% 30.03 in 8.0 mi SSE 4.6 mph - N/A   Overcast